[[{"header":{"parameterUnit":"m.s-1","parameterCategory":2,"la1":30.2991,"la2":30.254,"lo1":-89.0895,"lo2":-89.0444,"dy":0.0017,"dx":0.0017,"nx":28,"ny":28,"refTime":"2023-04-12T21:00:00:Z","depth":"0","parameterNumber":2,"parameterNumberName":"U-component_of_CURRENTS"},"data":[0,0,0,0,0,0,0,0,0,0,0,0,0,0,0,0,0,0,0,0,0,0,0,0,0,0,0,0,0,0,0,0,0,0,0,0,0,0,0,0,0,0,0,0,0,0,0,0,0,0,0,0,0,0,0,0,0,0,0.1969,0.1969,0,0.1973,0.1972,0.1972,0.1957,0.1957,0.1957,0.1957,0.194,0.1939,0.1939,0,0,0,0,0,0,0,0,0,0,0,0,0,0.1964,0.1964,0.1969,0.1969,0.197,0.1973,0.1972,0.1972,0.1957,0.1957,0.1957,0.1957,0.194,0.1939,0.1939,0,0,0,0,0,0,0,0,0,0,0,0,0,0.1964,0.1964,0.1969,0.1965,0.1965,0.1973,0.1972,0.1972,0.1957,0.1957,0.1957,0.1957,0.194,0.1939,0.1939,0.194,0,0,0.1937,0.1937,0,0,0,0,0,0,0,0,0.1964,0.1963,0.1965,0.1965,0.1965,0.1967,0.1965,0.1961,0.1957,0.1956,0.1957,0.1956,0.1949,0.1948,0.1945,0.1939,0.1938,0.1937,0.1937,0.1937,0.1937,0,0,0,0,0,0,0,0.1964,0.1963,0.1967,0.1966,0.1966,0.1969,0.1968,0.1964,0.1951,0.1957,0.1956,0.1962,0.1949,0.1945,0.1944,0.1938,0.1937,0.1937,0.1937,0.1936,0.1961,0.1962,0,0,0,0,0,0,0.1969,0.1963,0.1967,0.1967,0.1968,0.1969,0.1968,0.1964,0.1951,0.1951,0.1962,0.1962,0.1946,0.1945,0.1943,0.1966,0.1937,0.1936,0.1936,0.196,0.1961,0.1962,0,0,0,0,0,0,0.1969,0.1969,0.1967,0.1969,0.1969,0.197,0.1965,0.1964,0.1963,0.1957,0.1955,0.1963,0.1946,0.1944,0.1952,0.1964,0.1936,0.1936,0.1959,0.196,0.1961,0.1997,0,0,0,0,0,0,0.1969,0.1969,0.1969,0.1969,0.1969,0.1975,0.1966,0.1965,0.1969,0.1967,0.1957,0.1955,0.1946,0.1953,0.1952,0.1963,0.1935,0.1957,0.1959,0.1961,0.1995,0.2,0.2004,0,0,0,0,0,0.1968,0.1971,0.1968,0.1969,0.1968,0.1976,0.1976,0.1974,0.1969,0.1971,0.197,0.1955,0.1963,0.1954,0.1952,0.1963,0.1957,0.1959,0.1961,0.1993,0.1999,0.2004,0,0,0,0,0,0,0.1974,0.197,0.1967,0.1969,0.1975,0.1975,0.1981,0.1977,0.1977,0.1978,0.1966,0.1964,0.1978,0.1967,0.1957,0.1977,0.1958,0.196,0.1983,0.1988,0.1993,0.2007,0.1935,0,0,0,0,0,0.1975,0.197,0.1974,0.1976,0.1981,0.198,0.1984,0.1983,0.1985,0.1984,0.1978,0.1977,0.1985,0.1984,0.1987,0.1993,0.1994,0.2001,0.2005,0.2009,0.2021,0.2039,0.2046,0.1969,0.1969,0.1969,0,0,0.1977,0.1976,0.1973,0.1976,0.198,0.199,0.1981,0.199,0.1998,0.1983,0.1991,0.1994,0.1993,0.2006,0.201,0.1997,0.203,0.2012,0.2015,0.2025,0.2042,0.2049,0.2056,0.197,0.197,0.197,0,0,0.1983,0.1981,0.198,0.1987,0.1996,0.2,0.2005,0.2008,0.201,0.2022,0.2019,0.2033,0.2031,0.2039,0.2042,0.2074,0.2057,0.2069,0.2097,0.2115,0.2121,0.2127,0.213,0.2135,0.2066,0.2066,0.2066,0,0.199,0.1984,0.1984,0.1991,0.2001,0.2006,0.2017,0.2023,0.2029,0.2038,0.203,0.2054,0.2051,0.2078,0.2093,0.2084,0.2085,0.2075,0.2121,0.2126,0.2132,0.2133,0.2139,0.2068,0.2068,0.2068,0.2067,0,0.1993,0.1995,0.2,0.2007,0.2019,0.203,0.2045,0.2055,0.206,0.207,0.2097,0.2101,0.2116,0.2118,0.2116,0.2153,0.2139,0.2127,0.2106,0.2142,0.2141,0.2146,0.2071,0.207,0.207,0.2069,0,0,0.1992,0.1999,0.2001,0.2005,0.2028,0.2037,0.2062,0.2086,0.2104,0.2117,0.2148,0.2167,0.2173,0.2179,0.2177,0.2194,0.223,0.2179,0.2179,0.2181,0.2261,0.2173,0.217,0.2226,0.2227,0.2228,0.2242,0,0.1995,0.2002,0.2011,0.2028,0.2035,0.2057,0.208,0.2105,0.2126,0.2159,0.2182,0.2208,0.2194,0.2206,0.2225,0.2241,0.2248,0.2227,0.2228,0.2228,0.2145,0.2175,0.2101,0.2101,0.2247,0.2248,0.2249,0,0.1992,0.1996,0.2008,0.203,0.2038,0.2055,0.2094,0.2118,0.2171,0.2189,0.2227,0.2246,0.2291,0.2267,0.2305,0.2292,0.2281,0.2282,0.2282,0.2194,0.2151,0.2091,0.2105,0.2098,0.2257,0.2256,0.2256,0,0.1976,0.1995,0.2001,0.201,0.2039,0.2055,0.2079,0.2126,0.2157,0.2215,0.2248,0.2292,0.2328,0.2334,0.2338,0.2326,0.2372,0.235,0.2255,0.2248,0.2182,0.2166,0.2188,0.2364,0.2363,0.2363,0.2363,0,0.197,0.1974,0.1992,0.1994,0.2011,0.2045,0.2079,0.2106,0.2174,0.2217,0.2263,0.2305,0.235,0.2379,0.2363,0.2329,0.2386,0.2268,0.225,0.2189,0.2175,0.2162,0.2165,0.2364,0.2364,0.2364,0.2364,0,0.1945,0.1957,0.1962,0.199,0.1999,0.2013,0.2074,0.2102,0.2165,0.2228,0.2252,0.2341,0.237,0.2385,0.2407,0.2353,0.226,0.2293,0.2211,0.2181,0.2054,0.206,0.1886,0.185,0.2189,0.2187,0.2185,0,0.1926,0.1926,0.1947,0.1951,0.1961,0.1992,0.2014,0.2084,0.2124,0.2236,0.2268,0.2335,0.2368,0.2367,0.2291,0.2234,0.2192,0.2113,0.2067,0.2043,0.2039,0.1902,0.1877,0.2,0.1997,0.1994,0.1992,0,0.1892,0.1902,0.1907,0.1914,0.193,0.1955,0.1998,0.2032,0.2121,0.2176,0.2255,0.2299,0.2301,0.2226,0.2147,0.2097,0.2014,0.2055,0.2068,0.1922,0.1739,0.1697,0.1993,0.197,0.1972,0.1973,0.1975,0.1976,0.1865,0.1858,0.1867,0.1868,0.1888,0.1908,0.1911,0.1971,0.2025,0.2078,0.2175,0.2177,0.2162,0.2042,0.198,0.1844,0.1822,0.179,0.181,0.1679,0.1606,0.1833,0.1759,0.1759,0.176,0.1761,0.1762,0,0.1819,0.1816,0.182,0.182,0.1817,0.1848,0.1886,0.1879,0.1904,0.1954,0.1992,0.1949,0.1878,0.1833,0.1706,0.1631,0.153,0.1612,0.1464,0.1466,0.1721,0.168,0.1538,0.1538,0.1538,0.1538,0.1538,0.1538,0.1798,0.1773,0.1769,0.174,0.1743,0.1723,0.1727,0.1722,0.1738,0.1702,0.1659,0.1659,0.17,0.1642,0.1559,0.1524,0.1445,0.1317,0.1358,0.1631,0.1651,0.167,0.1633,0.1484,0.1484,0.1017,0.1014,0.1012]},{"header":{"parameterUnit":"m.s-1","parameterCategory":2,"la1":30.2991,"la2":30.254,"lo1":-89.0895,"lo2":-89.0444,"dy":0.0017,"dx":0.0017,"nx":28,"ny":28,"refTime":"2023-04-12T21:00:00:Z","depth":"0","parameterNumber":3,"parameterNumberName":"V-component_of_CURRENTS"},"data":[0,0,0,0,0,0,0,0,0,0,0,0,0,0,0,0,0,0,0,0,0,0,0,0,0,0,0,0,0,0,0,0,0,0,0,0,0,0,0,0,0,0,0,0,0,0,0,0,0,0,0,0,0,0,0,0,0,0,0.0167,0.0168,0,0.0195,0.0196,0.0196,0.021,0.021,0.021,0.021,0.0223,0.0224,0.0224,0,0,0,0,0,0,0,0,0,0,0,0,0,0.0124,0.0125,0.0167,0.0168,0.0168,0.0195,0.0196,0.0196,0.021,0.021,0.021,0.021,0.0223,0.0224,0.0224,0,0,0,0,0,0,0,0,0,0,0,0,0,0.0147,0.0125,0.0167,0.0178,0.0179,0.0195,0.0196,0.0196,0.021,0.021,0.021,0.021,0.0223,0.0224,0.0224,0.0228,0,0,0.0226,0.0226,0,0,0,0,0,0,0,0,0.0146,0.0148,0.0176,0.0177,0.0179,0.0199,0.0185,0.0206,0.021,0.0199,0.021,0.021,0.0214,0.0215,0.0221,0.0228,0.0229,0.0226,0.0226,0.0226,0.0227,0,0,0,0,0,0,0,0.0144,0.0147,0.0179,0.0177,0.0178,0.0181,0.0184,0.0189,0.0206,0.02,0.0201,0.0204,0.0214,0.022,0.0221,0.0229,0.0226,0.0226,0.0227,0.0227,0.0229,0.0229,0,0,0,0,0,0,0.014,0.0146,0.0178,0.0179,0.0162,0.0182,0.0185,0.0193,0.0206,0.0208,0.0204,0.0204,0.022,0.0221,0.0222,0.023,0.0226,0.0227,0.0227,0.0229,0.0229,0.0229,0,0,0,0,0,0,0.0139,0.0143,0.0177,0.0163,0.0167,0.0182,0.0191,0.0193,0.02,0.0209,0.0211,0.0207,0.022,0.0221,0.0226,0.023,0.0227,0.0228,0.023,0.0229,0.0229,0.0244,0,0,0,0,0,0,0.0138,0.0143,0.0146,0.0163,0.0168,0.0187,0.0191,0.0194,0.0202,0.0203,0.0213,0.0214,0.022,0.0225,0.0226,0.0231,0.0228,0.023,0.0229,0.0229,0.0244,0.0244,0.0245,0,0,0,0,0,0.0136,0.0143,0.0146,0.015,0.0173,0.0187,0.019,0.0201,0.0202,0.0206,0.0211,0.0214,0.0222,0.0225,0.0227,0.0232,0.023,0.0229,0.0229,0.0244,0.0244,0.0245,0,0,0,0,0,0,0.0124,0.0145,0.0149,0.0161,0.0172,0.0189,0.0195,0.02,0.0208,0.0209,0.0214,0.0216,0.0221,0.0221,0.0224,0.0229,0.0225,0.0225,0.0236,0.0236,0.0237,0.0247,0.0229,0,0,0,0,0,0.0123,0.0136,0.0151,0.016,0.0166,0.018,0.0186,0.0194,0.0203,0.0207,0.0212,0.0215,0.022,0.0223,0.0226,0.0232,0.0225,0.0233,0.0234,0.0234,0.0242,0.0236,0.0237,0.0227,0.0227,0.0227,0,0,0.0119,0.0134,0.014,0.0159,0.0169,0.0185,0.0184,0.0196,0.0209,0.0206,0.0221,0.0218,0.022,0.0227,0.0229,0.0229,0.023,0.0233,0.0234,0.0241,0.0235,0.0236,0.0237,0.0226,0.0226,0.0226,0,0,0.0126,0.0133,0.0148,0.0159,0.0176,0.0186,0.0188,0.0203,0.021,0.022,0.022,0.0219,0.0228,0.0231,0.0234,0.0236,0.0231,0.0233,0.0247,0.0241,0.0243,0.0244,0.0224,0.0223,0.0235,0.0235,0.0235,0,0.012,0.0147,0.0153,0.0171,0.0185,0.0187,0.0207,0.0213,0.0226,0.0236,0.0226,0.0236,0.0231,0.0246,0.0244,0.0238,0.023,0.0248,0.0243,0.0244,0.0245,0.0224,0.0223,0.0235,0.0235,0.0235,0.0235,0,0.0143,0.0162,0.0171,0.0199,0.021,0.0227,0.0237,0.0245,0.0248,0.0256,0.0266,0.0256,0.0264,0.0256,0.0252,0.0256,0.0245,0.0244,0.0245,0.0247,0.0225,0.0223,0.0236,0.0236,0.0236,0.0236,0,0,0.0141,0.0181,0.0185,0.0209,0.0229,0.0245,0.026,0.0283,0.0304,0.0296,0.032,0.0307,0.0299,0.03,0.0288,0.0279,0.0264,0.0264,0.0264,0.025,0.0241,0.024,0.0238,0.0264,0.0264,0.0264,0.0219,0,0.0162,0.0205,0.0217,0.0258,0.0284,0.0291,0.031,0.0326,0.0335,0.0353,0.0337,0.0351,0.0317,0.0322,0.0304,0.0284,0.0263,0.0275,0.0237,0.0236,0.024,0.0237,0.028,0.0245,0.0218,0.0217,0.0217,0,0.0186,0.0216,0.026,0.0306,0.0317,0.0336,0.0376,0.0393,0.0409,0.0415,0.0416,0.0406,0.0392,0.0362,0.0316,0.0327,0.0283,0.0256,0.0254,0.025,0.0232,0.0241,0.0243,0.0212,0.0215,0.0215,0.0215,0,0.02,0.0248,0.0288,0.0303,0.0347,0.0368,0.039,0.0413,0.0442,0.0457,0.048,0.0455,0.0453,0.04,0.033,0.0328,0.0275,0.0266,0.0217,0.0216,0.0244,0.0246,0.0221,0.0226,0.0226,0.0226,0.0226,0,0.0226,0.0259,0.03,0.0324,0.0376,0.0392,0.0446,0.0462,0.0494,0.0546,0.0513,0.0546,0.0464,0.0424,0.035,0.0279,0.0286,0.0222,0.0209,0.0248,0.0251,0.0218,0.0202,0.0224,0.0225,0.0225,0.0225,0,0.0239,0.0265,0.0316,0.0367,0.0387,0.0423,0.0489,0.053,0.055,0.0616,0.0626,0.0613,0.0573,0.0475,0.0389,0.0315,0.0235,0.0208,0.025,0.0244,0.0183,0.0166,0.0147,0.0145,0.016,0.016,0.016,0,0.0252,0.0279,0.0346,0.0383,0.041,0.0468,0.0516,0.0555,0.0608,0.0672,0.0711,0.0686,0.0702,0.0558,0.0418,0.0284,0.0239,0.0219,0.0224,0.0188,0.016,0.0161,0.0161,0.0257,0.0258,0.0258,0.0259,0,0.0275,0.0297,0.034,0.0415,0.0473,0.0546,0.0617,0.0672,0.0736,0.0807,0.0889,0.0907,0.0773,0.0679,0.047,0.0367,0.0235,0.0226,0.0187,0.0235,0.0238,0.0227,0.0262,0.0263,0.0263,0.0262,0.0262,0.0262,0.0291,0.0324,0.0381,0.0455,0.0525,0.0623,0.0706,0.08,0.0915,0.1051,0.1032,0.1104,0.0937,0.0681,0.0508,0.0269,0.0275,0.0223,0.0203,0.0204,0.0218,0.0254,0.0244,0.0244,0.0243,0.0243,0.0243,0,0.0313,0.0356,0.0422,0.0516,0.06,0.0637,0.0778,0.0887,0.1057,0.1179,0.1271,0.1261,0.105,0.0794,0.0471,0.0298,0.0235,0.0204,0.0221,0.0219,0.0251,0.0272,0.0271,0.0271,0.0271,0.0271,0.0271,0.0271,0.0326,0.0388,0.0427,0.0564,0.0639,0.0784,0.0881,0.106,0.1193,0.1413,0.1498,0.1525,0.1401,0.0804,0.0428,0.0303,0.0216,0.0184,0.0134,0.0157,0.0158,0.0158,0.0173,0.0152,0.0152,0.0143,0.0142,0.0142]}],[{"header":{"parameterUnit":"m.s-1","parameterCategory":2,"la1":30.2991,"la2":30.254,"lo1":-89.0895,"lo2":-89.0444,"dy":0.0017,"dx":0.0017,"nx":28,"ny":28,"refTime":"2023-04-12T21:00:00:Z","depth":"2","parameterNumber":2,"parameterNumberName":"U-component_of_CURRENTS"},"data":[0,0,0,0,0,0,0,0,0,0,0,0,0,0,0,0,0,0,0,0,0,0,0,0,0,0,0,0,0,0,0,0,0,0,0,0,0,0,0,0,0,0,0,0,0,0,0,0,0,0,0,0,0,0,0,0,0,0,0.156,0.1561,0,0.157,0.1569,0.1569,0.1565,0.1565,0.1565,0.1566,0.1557,0.1556,0.1556,0,0,0,0,0,0,0,0,0,0,0,0,0,0.1554,0.1553,0.156,0.1561,0.1561,0.157,0.1569,0.1569,0.1565,0.1565,0.1565,0.1566,0.1557,0.1556,0.1556,0,0,0,0,0,0,0,0,0,0,0,0,0,0.1554,0.1553,0.156,0.1564,0.1565,0.157,0.1569,0.1569,0.1565,0.1565,0.1566,0.1566,0.1557,0.1556,0.1556,0.1545,0,0,0.1554,0.1553,0,0,0,0,0,0,0,0,0.1554,0.1554,0.1563,0.1564,0.1565,0.1571,0.1564,0.1562,0.1565,0.156,0.1566,0.1566,0.1563,0.1561,0.1556,0.1544,0.1544,0.1554,0.1553,0.1553,0.1553,0,0,0,0,0,0,0,0.1554,0.1554,0.1559,0.1563,0.1565,0.1571,0.157,0.1563,0.1555,0.156,0.1561,0.157,0.1562,0.1556,0.1556,0.1544,0.1554,0.1553,0.1553,0.1552,0.158,0.1581,0,0,0,0,0,0,0.1562,0.1553,0.1559,0.156,0.1566,0.1571,0.157,0.1564,0.1555,0.1556,0.157,0.157,0.1557,0.1556,0.1555,0.1583,0.1553,0.1552,0.1552,0.1579,0.158,0.1582,0,0,0,0,0,0,0.1561,0.1561,0.1558,0.1562,0.1562,0.1571,0.1564,0.1565,0.1571,0.1564,0.1563,0.1578,0.1558,0.1556,0.1566,0.1581,0.1552,0.1551,0.1578,0.1579,0.1581,0.1611,0,0,0,0,0,0,0.1561,0.1561,0.1564,0.1562,0.1563,0.1559,0.1564,0.1565,0.1577,0.1578,0.157,0.1569,0.1558,0.1567,0.1565,0.1579,0.1551,0.1576,0.1578,0.158,0.1609,0.1614,0.1618,0,0,0,0,0,0.156,0.1567,0.1564,0.1565,0.1565,0.156,0.156,0.1564,0.1578,0.1572,0.1583,0.157,0.158,0.1567,0.1565,0.1579,0.1575,0.1578,0.158,0.1607,0.1613,0.1618,0,0,0,0,0,0,0.1568,0.1568,0.1564,0.1571,0.1564,0.1561,0.157,0.1572,0.1576,0.1586,0.1578,0.1577,0.1592,0.1585,0.1571,0.1596,0.1577,0.158,0.1598,0.1604,0.1609,0.1624,0.155,0,0,0,0,0,0.1571,0.1572,0.1568,0.1571,0.1573,0.1573,0.1577,0.1577,0.1581,0.1583,0.1585,0.1593,0.1598,0.1601,0.16,0.161,0.1613,0.1621,0.1625,0.1629,0.1642,0.1667,0.1675,0.159,0.159,0.159,0,0,0.1574,0.1577,0.1577,0.1573,0.1573,0.1577,0.1575,0.1583,0.1592,0.1582,0.1604,0.1606,0.1605,0.1618,0.1624,0.1615,0.1654,0.1633,0.1636,0.1647,0.1671,0.1679,0.1686,0.1592,0.1591,0.1591,0,0,0.1583,0.1584,0.1588,0.1586,0.1592,0.159,0.1595,0.1599,0.1607,0.1624,0.1626,0.1643,0.1647,0.1652,0.1655,0.1686,0.1676,0.1686,0.1721,0.1745,0.1752,0.1758,0.1764,0.1771,0.169,0.169,0.169,0,0.1596,0.1588,0.1587,0.1594,0.1602,0.1599,0.1606,0.1612,0.162,0.1638,0.1638,0.1671,0.1667,0.169,0.1705,0.1696,0.1704,0.1696,0.1751,0.1757,0.1763,0.1767,0.1774,0.1691,0.1691,0.1691,0.1691,0,0.1593,0.1599,0.1605,0.1609,0.1616,0.1619,0.163,0.1639,0.1659,0.1675,0.1709,0.1711,0.1735,0.1734,0.1731,0.1772,0.1761,0.1751,0.1734,0.1773,0.1775,0.1782,0.1694,0.1693,0.1693,0.1692,0,0,0.1602,0.1602,0.1608,0.1612,0.1625,0.1629,0.1651,0.1669,0.1698,0.1718,0.1761,0.1777,0.1795,0.1801,0.1796,0.1817,0.1861,0.181,0.181,0.1812,0.1907,0.182,0.1818,0.1863,0.1864,0.1865,0.1887,0,0.1603,0.1607,0.1614,0.163,0.1633,0.1647,0.1668,0.1693,0.1722,0.1764,0.1789,0.1827,0.1815,0.1833,0.1856,0.1859,0.1882,0.1855,0.1873,0.1874,0.1788,0.1825,0.1679,0.168,0.1894,0.1895,0.1896,0,0.1602,0.1602,0.1612,0.1635,0.1643,0.1661,0.1698,0.172,0.1778,0.1803,0.1851,0.1878,0.1919,0.1905,0.1939,0.1924,0.193,0.1928,0.1928,0.1844,0.1799,0.1679,0.1684,0.1907,0.1906,0.1905,0.1904,0,0.1595,0.1611,0.1617,0.1623,0.1645,0.1668,0.1691,0.1741,0.1772,0.1843,0.1877,0.1927,0.196,0.1978,0.1984,0.1971,0.2018,0.1993,0.1918,0.1911,0.1789,0.1768,0.2032,0.2032,0.2032,0.2032,0.2032,0,0.1593,0.1602,0.1616,0.162,0.1639,0.1674,0.172,0.1743,0.1808,0.1853,0.1908,0.194,0.1986,0.2017,0.2011,0.1982,0.204,0.1933,0.1917,0.1793,0.1773,0.1972,0.1965,0.2033,0.2032,0.2032,0.2032,0,0.159,0.1593,0.16,0.1624,0.1636,0.1658,0.1722,0.1751,0.1815,0.1874,0.1902,0.1972,0.1996,0.202,0.2049,0.2004,0.199,0.197,0.1812,0.1775,0.1858,0.1852,0.1877,0.1874,0.1872,0.187,0.1868,0,0.1581,0.158,0.1597,0.1601,0.1616,0.1657,0.1677,0.1741,0.1775,0.1876,0.1895,0.1962,0.1974,0.1974,0.1923,0.1886,0.195,0.1723,0.1665,0.1864,0.1845,0.1843,0.1841,0.1516,0.1511,0.1508,0.1505,0,0.156,0.157,0.1576,0.158,0.1598,0.1617,0.166,0.1679,0.1759,0.1801,0.1848,0.1875,0.188,0.1771,0.1732,0.169,0.171,0.1645,0.1915,0.1569,0.1523,0.1505,0.1514,0.1473,0.1476,0.1478,0.148,0.1482,0.1548,0.1541,0.1548,0.1551,0.1565,0.1564,0.156,0.1605,0.1634,0.1662,0.1737,0.1704,0.1689,0.1534,0.1462,0.1398,0.1513,0.143,0.1442,0.1457,0.1403,0.1354,0.1262,0.1264,0.1266,0.1267,0.1269,0,0.1512,0.1511,0.1513,0.1504,0.1492,0.1524,0.1529,0.1499,0.1492,0.1527,0.1538,0.1361,0.1278,0.1267,0.1115,0.1076,0.1076,0.1025,0.1024,0.1057,0.1086,0.1013,0.0769,0.0767,0.0765,0.0764,0,0,0.1493,0.1471,0.1461,0.1421,0.1427,0.1387,0.1371,0.1325,0.1315,0.1242,0.1201,0.1257,0.1256,0.1016,0.0958,0.0849,0.0955,0.0807,0.1212,0.1249,0.1276,0.1322,0.1247,0,0,0,0,0]},{"header":{"parameterUnit":"m.s-1","parameterCategory":2,"la1":30.2991,"la2":30.254,"lo1":-89.0895,"lo2":-89.0444,"dy":0.0017,"dx":0.0017,"nx":28,"ny":28,"refTime":"2023-04-12T21:00:00:Z","depth":"2","parameterNumber":3,"parameterNumberName":"V-component_of_CURRENTS"},"data":[0,0,0,0,0,0,0,0,0,0,0,0,0,0,0,0,0,0,0,0,0,0,0,0,0,0,0,0,0,0,0,0,0,0,0,0,0,0,0,0,0,0,0,0,0,0,0,0,0,0,0,0,0,0,0,0,0,0,0.0255,0.0255,0,0.028,0.028,0.0281,0.0288,0.0288,0.0288,0.0288,0.0296,0.0296,0.0296,0,0,0,0,0,0,0,0,0,0,0,0,0,0.0208,0.0209,0.0254,0.0255,0.0255,0.028,0.028,0.0281,0.0288,0.0288,0.0288,0.0288,0.0295,0.0296,0.0296,0,0,0,0,0,0,0,0,0,0,0,0,0,0.0231,0.0209,0.0254,0.0261,0.0262,0.028,0.028,0.0281,0.0288,0.0288,0.0288,0.0287,0.0295,0.0296,0.0296,0.0305,0,0,0.0298,0.0298,0,0,0,0,0,0,0,0,0.0229,0.0232,0.026,0.0261,0.0262,0.028,0.0267,0.0288,0.0288,0.0279,0.0288,0.0287,0.0289,0.029,0.0296,0.0305,0.0306,0.0298,0.0298,0.0299,0.0299,0,0,0,0,0,0,0,0.0228,0.0231,0.0265,0.026,0.0262,0.0262,0.0265,0.0271,0.0285,0.028,0.028,0.0282,0.0289,0.0296,0.0296,0.0306,0.0298,0.0299,0.0299,0.0299,0.0307,0.0307,0,0,0,0,0,0,0.0225,0.023,0.0264,0.0266,0.0244,0.0263,0.0266,0.0275,0.0285,0.0287,0.0283,0.0283,0.0295,0.0296,0.0296,0.0306,0.0299,0.0299,0.03,0.0307,0.0307,0.0306,0,0,0,0,0,0,0.0224,0.0228,0.0263,0.0248,0.0252,0.0264,0.0274,0.0276,0.028,0.0288,0.0289,0.0285,0.0295,0.0296,0.0302,0.0306,0.0299,0.03,0.0307,0.0307,0.0307,0.0325,0,0,0,0,0,0,0.0222,0.0227,0.0231,0.0248,0.0253,0.0276,0.0274,0.0276,0.0282,0.0282,0.029,0.029,0.0294,0.0301,0.0302,0.0307,0.03,0.0307,0.0307,0.0307,0.0325,0.0326,0.0326,0,0,0,0,0,0.0221,0.0229,0.0231,0.0235,0.0259,0.0276,0.0279,0.0287,0.0282,0.0289,0.029,0.029,0.03,0.0301,0.0303,0.0308,0.0307,0.0307,0.0307,0.0324,0.0326,0.0326,0,0,0,0,0,0,0.021,0.0231,0.0234,0.0248,0.0261,0.0277,0.0283,0.0286,0.0293,0.0291,0.0294,0.0295,0.0301,0.0299,0.0301,0.0307,0.0301,0.0301,0.0314,0.0315,0.0316,0.0323,0.0301,0,0,0,0,0,0.021,0.0223,0.024,0.0251,0.0257,0.0269,0.0275,0.0281,0.029,0.0293,0.0296,0.0296,0.0302,0.0304,0.0308,0.0314,0.0305,0.0315,0.0316,0.0317,0.0323,0.0313,0.0314,0.0305,0.0305,0.0305,0,0,0.0208,0.0222,0.0228,0.0249,0.026,0.0277,0.0272,0.0285,0.0298,0.0292,0.0304,0.0301,0.0303,0.0312,0.0314,0.0311,0.0312,0.0317,0.0318,0.0323,0.0313,0.0314,0.0314,0.0305,0.0305,0.0305,0,0,0.0216,0.0224,0.0239,0.0252,0.0269,0.028,0.0282,0.0297,0.0301,0.0312,0.0309,0.0308,0.0315,0.0319,0.0322,0.0328,0.0317,0.0324,0.0337,0.0327,0.0328,0.0329,0.0309,0.0308,0.0325,0.0325,0.0325,0,0.021,0.0238,0.0245,0.0264,0.0278,0.0281,0.0302,0.0308,0.0321,0.0327,0.0316,0.0325,0.0321,0.0336,0.0335,0.0331,0.032,0.0335,0.0329,0.033,0.033,0.031,0.0309,0.0325,0.0325,0.0325,0.0325,0,0.0235,0.0255,0.0265,0.0293,0.0305,0.0324,0.0336,0.0344,0.0344,0.0349,0.0357,0.0349,0.0355,0.0349,0.0345,0.0347,0.0336,0.0332,0.0329,0.0332,0.0311,0.0309,0.0327,0.0326,0.0326,0.0326,0,0,0.0232,0.0275,0.0278,0.0301,0.0325,0.0342,0.0359,0.0382,0.0399,0.0391,0.0409,0.0401,0.0389,0.039,0.038,0.0367,0.0351,0.035,0.0349,0.0335,0.0322,0.032,0.0317,0.0347,0.0347,0.0347,0.0303,0,0.0251,0.0296,0.0311,0.0352,0.0378,0.0388,0.0407,0.0423,0.0429,0.0444,0.0428,0.0439,0.0407,0.041,0.0391,0.0372,0.0348,0.0363,0.0317,0.0316,0.0318,0.0316,0.0336,0.03,0.0301,0.03,0.03,0,0.0274,0.0305,0.0349,0.0396,0.0407,0.0428,0.0466,0.0484,0.0498,0.0502,0.0499,0.0488,0.0475,0.0444,0.0397,0.0408,0.0363,0.0336,0.0334,0.0327,0.0311,0.0298,0.0296,0.0297,0.0297,0.0297,0.0297,0,0.0283,0.0333,0.0372,0.0388,0.0435,0.0455,0.0478,0.05,0.0529,0.0539,0.056,0.0533,0.0531,0.0475,0.0407,0.0405,0.0349,0.0341,0.0291,0.029,0.0296,0.0296,0.0296,0.0296,0.0296,0.0296,0.0296,0,0.0305,0.0337,0.038,0.0405,0.0455,0.0473,0.0524,0.0541,0.0573,0.0623,0.0589,0.062,0.0539,0.0498,0.0424,0.0353,0.0357,0.0294,0.0282,0.0302,0.0302,0.0294,0.0295,0.0294,0.0295,0.0295,0.0295,0,0.0311,0.0339,0.039,0.0442,0.0463,0.0496,0.0565,0.0605,0.0625,0.0688,0.0696,0.0685,0.0643,0.0546,0.0458,0.0386,0.0311,0.0276,0.0299,0.029,0.0252,0.0253,0.0229,0.0229,0.0229,0.0229,0.0228,0,0.032,0.0346,0.0415,0.0452,0.0479,0.0535,0.0584,0.0627,0.068,0.0741,0.0781,0.0753,0.0762,0.0619,0.048,0.0346,0.0313,0.0263,0.0265,0.0256,0.0246,0.0249,0.0251,0.0272,0.0272,0.0272,0.0272,0,0.0338,0.0359,0.0402,0.0477,0.0535,0.0611,0.0684,0.074,0.0806,0.0869,0.0943,0.0953,0.0821,0.0705,0.0501,0.0405,0.0289,0.0263,0.0251,0.029,0.0294,0.0285,0.0286,0.0273,0.0273,0.0273,0.0273,0.0273,0.0348,0.038,0.0438,0.0511,0.0582,0.0685,0.0768,0.086,0.0969,0.1081,0.1064,0.108,0.0917,0.068,0.0497,0.0296,0.032,0.0251,0.0251,0.0251,0.0269,0.0273,0.025,0.025,0.025,0.0249,0.0249,0,0.0364,0.0407,0.0473,0.057,0.0656,0.0694,0.0839,0.094,0.1095,0.1166,0.123,0.1072,0.0924,0.0714,0.0438,0.0281,0.0254,0.0208,0.0222,0.0223,0.0224,0.024,0.0213,0.0212,0.0211,0.0211,0,0,0.0376,0.0436,0.0475,0.0615,0.0691,0.0835,0.0934,0.1091,0.1186,0.1286,0.1283,0.1244,0.0999,0.0782,0.056,0.0394,0.034,0.0347,0.0401,0.0449,0.0451,0.0279,0.031,0,0,0,0,0]}],[{"header":{"parameterUnit":"m.s-1","parameterCategory":2,"la1":30.2991,"la2":30.254,"lo1":-89.0895,"lo2":-89.0444,"dy":0.0017,"dx":0.0017,"nx":28,"ny":28,"refTime":"2023-04-12T21:00:00:Z","depth":"4","parameterNumber":2,"parameterNumberName":"U-component_of_CURRENTS"},"data":[0,0,0,0,0,0,0,0,0,0,0,0,0,0,0,0,0,0,0,0,0,0,0,0,0,0,0,0,0,0,0,0,0,0,0,0,0,0,0,0,0,0,0,0,0,0,0,0,0,0,0,0,0,0,0,0,0,0,0.0574,0.0573,0,0.0589,0.059,0.0591,0.0628,0.0628,0.0629,0.0629,0.0678,0.0679,0.068,0,0,0,0,0,0,0,0,0,0,0,0,0,0.0605,0.0605,0.0574,0.0573,0.0573,0.0589,0.059,0.0591,0.0628,0.0628,0.0629,0.0629,0.0678,0.0679,0.068,0,0,0,0,0,0,0,0,0,0,0,0,0,0.0608,0.0605,0.0574,0.059,0.0591,0.0589,0.059,0.0591,0.0628,0.0628,0.0629,0.0629,0.0678,0.0679,0.0681,0.068,0,0,0.0685,0.0686,0,0,0,0,0,0,0,0,0.0608,0.0607,0.0588,0.0589,0.059,0.0603,0.0619,0.0621,0.0628,0.0619,0.0629,0.0629,0.0653,0.0656,0.0665,0.0682,0.0684,0.0685,0.0686,0.0687,0.0687,0,0,0,0,0,0,0,0.0607,0.0607,0.0585,0.0587,0.0589,0.0606,0.0608,0.062,0.0637,0.062,0.0621,0.0615,0.0654,0.0663,0.0666,0.0685,0.0685,0.0687,0.0688,0.0688,0.0732,0.0732,0,0,0,0,0,0,0.0593,0.0606,0.0584,0.0585,0.0595,0.0605,0.0607,0.0602,0.0636,0.064,0.0615,0.0617,0.066,0.0664,0.0668,0.0716,0.0687,0.0688,0.0689,0.0732,0.0732,0.0733,0,0,0,0,0,0,0.0594,0.0591,0.0584,0.0592,0.0592,0.0603,0.0599,0.0602,0.0636,0.0631,0.0637,0.0647,0.0661,0.0666,0.0676,0.0716,0.0689,0.069,0.0732,0.0732,0.0732,0.0782,0,0,0,0,0,0,0.0595,0.0592,0.0598,0.0591,0.0591,0.0594,0.0598,0.0602,0.0627,0.0631,0.066,0.0664,0.0662,0.0673,0.0677,0.0718,0.0692,0.0731,0.0732,0.0732,0.078,0.0784,0.0788,0,0,0,0,0,0.0596,0.0592,0.0598,0.0596,0.0594,0.0594,0.0597,0.0609,0.0629,0.0644,0.0648,0.0664,0.068,0.0674,0.0679,0.0721,0.0731,0.0732,0.0732,0.0779,0.0784,0.0788,0,0,0,0,0,0,0.0609,0.0595,0.0602,0.0595,0.0601,0.0599,0.0613,0.0626,0.0644,0.0655,0.066,0.0663,0.0696,0.0689,0.0682,0.0732,0.0712,0.0714,0.0746,0.0751,0.0754,0.0766,0.0693,0,0,0,0,0,0.0613,0.0613,0.0603,0.0605,0.0609,0.0621,0.0629,0.0637,0.0642,0.0654,0.0669,0.0682,0.0699,0.0707,0.0719,0.0737,0.0736,0.0768,0.0772,0.0775,0.0785,0.0803,0.081,0.0734,0.0734,0.0734,0,0,0.062,0.0612,0.0614,0.0609,0.062,0.0625,0.063,0.0645,0.066,0.0655,0.069,0.0703,0.0707,0.0731,0.0745,0.0731,0.0793,0.0776,0.0779,0.0788,0.0804,0.0812,0.0819,0.0735,0.0735,0.0735,0,0,0.0623,0.0629,0.0629,0.0633,0.0641,0.0646,0.0656,0.0667,0.0688,0.0707,0.0715,0.0737,0.0762,0.0767,0.0774,0.0801,0.0818,0.0822,0.0849,0.0866,0.0873,0.0879,0.0879,0.0884,0.0817,0.0817,0.0817,0,0.0633,0.0628,0.0632,0.0633,0.064,0.0659,0.0667,0.0685,0.07,0.0714,0.0723,0.0772,0.0777,0.0808,0.0821,0.0814,0.0824,0.0835,0.0873,0.0879,0.0884,0.0883,0.0888,0.082,0.0819,0.0819,0.0819,0,0.0631,0.0636,0.064,0.0648,0.0659,0.067,0.0685,0.071,0.0741,0.0753,0.0803,0.0812,0.0836,0.0853,0.085,0.0899,0.0894,0.0883,0.0867,0.0896,0.0891,0.0896,0.0823,0.0822,0.0822,0.0821,0,0,0.063,0.0636,0.064,0.0644,0.0669,0.067,0.0707,0.0732,0.0762,0.0795,0.0831,0.0872,0.0891,0.0899,0.0912,0.0934,0.0976,0.0936,0.0935,0.0944,0.1017,0.0943,0.094,0.0987,0.0988,0.0989,0.0996,0,0.0633,0.0633,0.064,0.0653,0.0659,0.0685,0.0719,0.0747,0.0784,0.082,0.0851,0.0895,0.0905,0.0936,0.0958,0.0979,0.0994,0.0975,0.098,0.098,0.0918,0.0945,0.0993,0.1,0.1001,0.1002,0.1002,0,0.0627,0.0632,0.0645,0.0659,0.0666,0.0686,0.0741,0.0763,0.0816,0.0855,0.0902,0.0927,0.0974,0.0977,0.1027,0.1023,0.1028,0.1037,0.1037,0.0956,0.0915,0.0965,0.1011,0.101,0.101,0.1009,0.1008,0,0.0618,0.0627,0.064,0.0645,0.0674,0.0699,0.0723,0.0782,0.0813,0.0881,0.0923,0.0972,0.101,0.1036,0.1057,0.1055,0.1101,0.1084,0.1015,0.1009,0.1053,0.1046,0.1112,0.1112,0.1112,0.1112,0.1112,0,0.0602,0.0609,0.0642,0.0644,0.0676,0.07,0.0744,0.0784,0.0849,0.0883,0.0942,0.0983,0.1036,0.1061,0.1069,0.1057,0.1104,0.1029,0.1012,0.107,0.1066,0.1056,0.1049,0.1112,0.1112,0.1112,0.1112,0,0.0579,0.06,0.0608,0.0649,0.0669,0.069,0.0748,0.0777,0.0858,0.0905,0.0935,0.1006,0.1044,0.1073,0.1106,0.1065,0.1063,0.1043,0.1102,0.1087,0.0954,0.095,0.0963,0.0961,0.0959,0.0957,0.0956,0,0.0563,0.0571,0.0607,0.0622,0.0644,0.0684,0.0718,0.0785,0.0808,0.0906,0.0915,0.0987,0.1023,0.1008,0.1041,0.1038,0.1026,0.1005,0.0986,0.096,0.0942,0.0941,0.094,0.0952,0.0952,0.0951,0.0951,0,0.0539,0.0561,0.0567,0.0601,0.0633,0.0644,0.0684,0.0704,0.0773,0.0859,0.089,0.0913,0.0945,0.096,0.0969,0.0963,0.101,0.0983,0.0987,0.0969,0.0947,0.0931,0.0932,0.0944,0.0945,0.0945,0.0946,0,0.053,0.0526,0.0544,0.0564,0.0592,0.0585,0.0612,0.0638,0.0674,0.0783,0.0787,0.0867,0.0933,0.0919,0.0924,0.0919,0.0901,0.0858,0.0868,0.0876,0.0844,0.0803,0.0748,0,0,0,0,0,0.0522,0.0504,0.0509,0.0502,0.0519,0.0537,0.0578,0.0607,0.0684,0.0688,0.0738,0.0768,0.0796,0.0826,0.0803,0.0868,0.0892,0.0834,0.0844,0.0904,0.0912,0.0882,0,0,0,0,0,0,0.0511,0.0511,0.049,0.0449,0.0438,0.0442,0.047,0.0521,0.0517,0.0613,0.0632,0.071,0.0745,0.0809,0.0788,0.0796,0.0781,0.0883,0.088,0.0899,0.0907,0.0913,0.0886,0,0,0,0,0]},{"header":{"parameterUnit":"m.s-1","parameterCategory":2,"la1":30.2991,"la2":30.254,"lo1":-89.0895,"lo2":-89.0444,"dy":0.0017,"dx":0.0017,"nx":28,"ny":28,"refTime":"2023-04-12T21:00:00:Z","depth":"4","parameterNumber":3,"parameterNumberName":"V-component_of_CURRENTS"},"data":[0,0,0,0,0,0,0,0,0,0,0,0,0,0,0,0,0,0,0,0,0,0,0,0,0,0,0,0,0,0,0,0,0,0,0,0,0,0,0,0,0,0,0,0,0,0,0,0,0,0,0,0,0,0,0,0,0,0,0.0338,0.0338,0,0.0366,0.0366,0.0367,0.0375,0.0375,0.0375,0.0375,0.0385,0.0386,0.0386,0,0,0,0,0,0,0,0,0,0,0,0,0,0.0285,0.0286,0.0338,0.0338,0.0338,0.0366,0.0366,0.0367,0.0375,0.0375,0.0375,0.0375,0.0385,0.0386,0.0386,0,0,0,0,0,0,0,0,0,0,0,0,0,0.031,0.0286,0.0338,0.0346,0.0347,0.0366,0.0366,0.0367,0.0375,0.0375,0.0375,0.0375,0.0385,0.0386,0.0386,0.0394,0,0,0.0388,0.0388,0,0,0,0,0,0,0,0,0.0309,0.0312,0.0344,0.0346,0.0347,0.0367,0.0352,0.0375,0.0375,0.0364,0.0375,0.0375,0.0378,0.0379,0.0385,0.0394,0.0394,0.0388,0.0388,0.0389,0.0389,0,0,0,0,0,0,0,0.0307,0.0311,0.0349,0.0345,0.0346,0.0347,0.035,0.0356,0.0371,0.0365,0.0366,0.037,0.0378,0.0384,0.0385,0.0395,0.0388,0.0389,0.0389,0.0389,0.0417,0.0418,0,0,0,0,0,0,0.0305,0.0309,0.0348,0.035,0.0327,0.0348,0.0352,0.0361,0.0372,0.0373,0.037,0.037,0.0383,0.0384,0.0385,0.0407,0.0389,0.0389,0.039,0.0417,0.0417,0.0418,0,0,0,0,0,0,0.0303,0.0308,0.0347,0.033,0.0335,0.0349,0.0359,0.0361,0.0369,0.0375,0.0377,0.0376,0.0383,0.0384,0.0401,0.0407,0.0389,0.039,0.0417,0.0417,0.0418,0.0442,0,0,0,0,0,0,0.0302,0.0308,0.0316,0.033,0.0336,0.0362,0.0359,0.0362,0.0372,0.0372,0.0381,0.0382,0.0383,0.04,0.0401,0.0407,0.039,0.0416,0.0417,0.0418,0.0441,0.0443,0.0445,0,0,0,0,0,0.03,0.0315,0.0317,0.0321,0.0346,0.0363,0.0366,0.0375,0.0372,0.038,0.0389,0.0381,0.0405,0.0401,0.0403,0.0409,0.0416,0.0417,0.0417,0.0439,0.0443,0.0445,0,0,0,0,0,0,0.0298,0.0318,0.032,0.034,0.0351,0.0364,0.0375,0.0377,0.039,0.0392,0.0392,0.0394,0.0408,0.0406,0.0402,0.0418,0.0407,0.0408,0.0423,0.0426,0.0428,0.0429,0.0391,0,0,0,0,0,0.0301,0.0317,0.0331,0.0347,0.0353,0.0363,0.0371,0.0377,0.0389,0.0394,0.04,0.0406,0.0413,0.0418,0.0424,0.0437,0.0424,0.044,0.0442,0.0444,0.0445,0.043,0.0431,0.0421,0.0421,0.0421,0,0,0.0304,0.0317,0.0326,0.0348,0.0357,0.0373,0.0368,0.0384,0.0398,0.0393,0.0415,0.0416,0.0418,0.0434,0.0439,0.0433,0.0441,0.0446,0.0447,0.0447,0.0431,0.0432,0.0433,0.0421,0.0421,0.0421,0,0,0.0317,0.033,0.0346,0.0358,0.0376,0.0384,0.0388,0.0404,0.0411,0.0431,0.043,0.0437,0.045,0.0454,0.0456,0.0475,0.0454,0.0473,0.0487,0.0473,0.0473,0.0473,0.0459,0.0458,0.0474,0.0474,0.0474,0,0.0319,0.0344,0.0353,0.0371,0.0385,0.0389,0.0408,0.0418,0.0437,0.0446,0.0442,0.0458,0.046,0.0474,0.0481,0.0481,0.0467,0.0476,0.0475,0.0475,0.0475,0.046,0.0458,0.0476,0.0475,0.0475,0.0475,0,0.0341,0.0364,0.0375,0.0401,0.0416,0.0434,0.0448,0.0461,0.0468,0.0475,0.049,0.0492,0.0499,0.0499,0.0497,0.0499,0.0487,0.0479,0.0467,0.0478,0.0461,0.0459,0.0477,0.0477,0.0477,0.0476,0,0,0.0339,0.0383,0.0387,0.0408,0.0434,0.0451,0.0473,0.0495,0.0511,0.0518,0.0533,0.054,0.0533,0.0534,0.0528,0.0516,0.0504,0.0498,0.0497,0.0482,0.0469,0.0446,0.0441,0.0493,0.0492,0.0492,0.0458,0,0.0354,0.0395,0.0414,0.0454,0.0476,0.0491,0.0512,0.0532,0.0544,0.0559,0.0552,0.0567,0.0548,0.0553,0.0537,0.0517,0.05,0.0514,0.0462,0.046,0.0437,0.0438,0.0491,0.0456,0.0455,0.0455,0.0455,0,0.0368,0.0396,0.0437,0.0486,0.0496,0.0522,0.0559,0.058,0.0596,0.0603,0.0605,0.06,0.0594,0.0572,0.0532,0.0541,0.0505,0.0482,0.048,0.0448,0.0433,0.0443,0.0451,0.0451,0.0451,0.0451,0.0452,0,0.0362,0.0414,0.045,0.0466,0.0516,0.0541,0.0568,0.0594,0.062,0.0633,0.0648,0.0629,0.063,0.0583,0.0536,0.0533,0.0483,0.0473,0.0416,0.0414,0.0435,0.0435,0.0434,0.0434,0.0434,0.0434,0.0434,0,0.037,0.04,0.0454,0.0476,0.0522,0.0552,0.0603,0.0619,0.0652,0.0685,0.0671,0.0683,0.0632,0.06,0.0544,0.0474,0.0486,0.0417,0.0403,0.0446,0.0448,0.0433,0.0434,0.0433,0.0433,0.0434,0.0434,0,0.0358,0.0393,0.044,0.05,0.0523,0.0557,0.0635,0.0671,0.0693,0.0733,0.0741,0.0728,0.0684,0.0623,0.0551,0.0492,0.0425,0.0394,0.0447,0.0437,0.0363,0.0366,0.0328,0.0327,0.0326,0.0326,0.0325,0,0.0357,0.0379,0.0454,0.049,0.0524,0.0585,0.0632,0.0683,0.0725,0.076,0.0778,0.0752,0.0731,0.061,0.0539,0.0425,0.0403,0.0364,0.0358,0.0362,0.0352,0.0356,0.0359,0.0323,0.0323,0.0323,0.0323,0,0.0354,0.0381,0.0422,0.0492,0.0554,0.0625,0.0697,0.073,0.0786,0.0804,0.0803,0.0749,0.0695,0.0603,0.0514,0.0432,0.0388,0.0353,0.0354,0.0349,0.0355,0.0347,0.0352,0.0319,0.032,0.032,0.032,0,0.0351,0.0376,0.0433,0.0496,0.0572,0.0651,0.0692,0.0748,0.079,0.0823,0.0819,0.0762,0.0734,0.0607,0.0528,0.0442,0.0416,0.0378,0.0377,0.038,0.0401,0.0417,0.0387,0,0,0,0,0,0.0346,0.038,0.0437,0.0515,0.0591,0.0643,0.073,0.077,0.0821,0.0817,0.082,0.0765,0.0648,0.0604,0.0513,0.0506,0.0401,0.0395,0.0357,0.0301,0.0305,0.0318,0,0,0,0,0,0,0.0347,0.0394,0.0429,0.0521,0.0577,0.0671,0.0733,0.077,0.0772,0.0797,0.0738,0.0718,0.0608,0.069,0.05,0.0478,0.0436,0.0347,0.0344,0.0299,0.0302,0.0305,0.032,0,0,0,0,0]}]]